Milan, NM

10:04 AM MST on December 03, 2016 (GMT -0700)
Grants-Milan Municipal

Weather History for KGNT - January, 2013

Change the Weather History Date:

Tuesday, January 8, 2013

  Actual Average Record
Temperature  
Mean Temperature 28 °F -  
Max Temperature 47 °F 43 °F 62 °F (1984)
Min Temperature 9 °F 11 °F -17 °F (1971)
Degree Days  
Heating Degree Days 37    
Moisture  
Dew Point 15 °F    
Average Humidity 62    
Maximum Humidity 90    
Minimum Humidity 27    
Precipitation  
Precipitation 0.00 in - - ()
Sea Level Pressure  
Sea Level Pressure 30.11 in    
Wind  
Wind Speed 10 mph (NNW)    
Max Wind Speed 23 mph    
Max Gust Speed 29 mph    
Visibility 10 miles    
Events      
Averages and records for this station are not official NWS values.
T = Trace of Precipitation, MM = Missing Value Source: NWS Daily Summary

Daily Weather History Graph

Daily Weather History Graph

Search for Another Location

Airport or City:

Trip Planner

Search our weather history database for the weather conditions in past years. The results will help you decide how hot, cold, wet, or windy it might be!

Date:

Astronomy

Jan. 08, 2013 Rise Set
Actual Time 7:20 AM MST 5:16 PM MST
Civil Twilight 6:52 AM MST 5:44 PM MST
Nautical Twilight 6:21 AM MST 6:15 PM MST
Astronomical Twilight 5:50 AM MST 6:46 PM MST
Moon 3:57 AM MST (1/8) 2:21 PM MST (1/8)
Length of Visible Light 10h 51m
Length of Day
9h 56m
Waning Crescent, 13% of the Moon is Illuminated
Jan 8
Waning Crescent
Jan 11
New
Jan 18
First Quarter
Jan 26
Full
Feb 3
Last Quarter

Hourly Weather History & Observations

Time (MST) Temp. Windchill Dew Point Humidity Pressure Visibility Wind Dir Wind Speed Gust Speed Precip Events Conditions
12:15 AM 16.2 °F 3.9 °F 13.3 °F 88% 30.02 in 10.0 mi NW 10.4 mph - N/A   Clear
12:35 AM 21.6 °F 11.3 °F 16.3 °F 80% 30.02 in 10.0 mi NW 9.2 mph - N/A   Clear
12:55 AM 22.3 °F 10.8 °F 16.5 °F 79% 30.02 in 10.0 mi WNW 11.5 mph - N/A   Clear
1:15 AM 20.1 °F 13.6 °F 14.4 °F 78% 30.03 in 10.0 mi NNE 4.6 mph - N/A   Clear
1:35 AM 19.8 °F 13.2 °F 14.9 °F 81% 30.03 in 10.0 mi North 4.6 mph - N/A   Clear
1:55 AM 16.9 °F 11.5 °F 13.5 °F 86% 30.03 in 10.0 mi North 3.5 mph - N/A   Clear
2:15 AM 15.8 °F 10.2 °F 12.4 °F 86% 30.02 in 10.0 mi North 3.5 mph - N/A   Clear
2:35 AM 14.9 °F 7.5 °F 11.5 °F 86% 30.02 in 10.0 mi WNW 4.6 mph - N/A   Clear
2:55 AM 14.9 °F 7.5 °F 11.8 °F 88% 30.01 in 10.0 mi WNW 4.6 mph - N/A   Clear
3:35 AM 12.4 °F 3.1 °F 9.9 °F 90% 30.02 in 10.0 mi WNW 5.8 mph - N/A   Clear
3:55 AM 12.9 °F 0.7 °F 9.9 °F 88% 30.02 in 10.0 mi NW 9.2 mph - N/A   Clear
4:15 AM 10.6 °F -2.2 °F 7.7 °F 88% 30.02 in 10.0 mi NNW 9.2 mph - N/A   Clear
4:35 AM 12.2 °F -0.2 °F 9.7 °F 90% 30.02 in 10.0 mi NW 9.2 mph - N/A   Clear
5:15 AM 11.3 °F 1.9 °F 8.6 °F 89% 30.02 in 10.0 mi NW 5.8 mph - N/A   Clear
5:35 AM 11.8 °F 0.3 °F 9.0 °F 88% 30.02 in 10.0 mi NW 8.1 mph - N/A   Clear
5:55 AM 11.7 °F 0.0 °F 9.0 °F 89% 30.04 in 10.0 mi NW 8.1 mph - N/A   Clear
6:35 AM 10.0 °F 0.4 °F 7.3 °F 89% 30.05 in 10.0 mi WNW 5.8 mph - N/A   Clear
6:55 AM 11.1 °F -1.6 °F 8.1 °F 87% 30.06 in 10.0 mi NW 9.2 mph - N/A   Clear
7:15 AM 9.5 °F -2.6 °F 6.6 °F 88% 30.07 in 10.0 mi NW 8.1 mph - N/A   Clear
7:55 AM 12.9 °F 2.6 °F 9.3 °F 86% 30.10 in 10.0 mi NNW 6.9 mph - N/A   Clear
8:15 AM 14.4 °F 2.4 °F 10.2 °F 84% 30.10 in 10.0 mi NW 9.2 mph - N/A   Clear
8:35 AM 17.6 °F 8.2 °F 12.2 °F 79% 30.10 in 10.0 mi NW 6.9 mph - N/A   Clear
8:55 AM 20.8 °F 13.2 °F 14.0 °F 75% 30.10 in 10.0 mi NNW 5.8 mph - N/A   Clear
9:15 AM 23.2 °F 17.2 °F 14.2 °F 68% 30.10 in 10.0 mi NNW 4.6 mph - N/A   Clear
9:35 AM 25.3 °F 18.5 °F 15.1 °F 65% 30.10 in 10.0 mi NNW 5.8 mph - N/A   Clear
9:55 AM 29.5 °F 22.5 °F 15.6 °F 56% 30.10 in 10.0 mi North 6.9 mph - N/A   Clear
10:15 AM 32.7 °F 25.0 °F 16.5 °F 51% 30.11 in 10.0 mi NNW 9.2 mph - N/A   Clear
10:35 AM 36.5 °F 30.3 °F 16.3 °F 44% 30.11 in 10.0 mi North 8.1 mph - N/A   Clear
10:55 AM 40.8 °F 32.9 °F 10.2 °F 29% 30.10 in 10.0 mi NNW 15.0 mph - N/A   Clear
11:15 AM 41.5 °F 33.8 °F 9.5 °F 27% 30.10 in 10.0 mi North 15.0 mph - N/A   Clear
11:55 AM 44.2 °F 38.8 °F 12.7 °F 28% 30.08 in 10.0 mi NNW 10.4 mph - N/A   Clear
12:15 PM 45.3 °F 37.8 °F 15.8 °F 31% 30.08 in 10.0 mi North 18.4 mph 25.3 mph N/A   Clear
12:55 PM 45.9 °F 38.8 °F 15.8 °F 30% 30.07 in 10.0 mi NNW 17.3 mph 21.9 mph N/A   Clear
1:15 PM 45.7 °F 39.8 °F 16.0 °F 30% 30.07 in 10.0 mi North 12.7 mph 23.0 mph N/A   Clear
1:35 PM 46.4 °F 39.8 °F 17.1 °F 31% 30.06 in 10.0 mi NNW 16.1 mph 20.7 mph N/A   Clear
1:55 PM 47.1 °F - 17.2 °F 30% 30.07 in 10.0 mi North 19.6 mph 24.2 mph N/A   Clear
2:15 PM 47.5 °F - 16.3 °F 29% 30.07 in 10.0 mi North 19.6 mph 25.3 mph N/A   Clear
2:35 PM 47.5 °F - 15.8 °F 28% 30.08 in 10.0 mi North 19.6 mph 27.6 mph N/A   Clear
2:55 PM 46.8 °F - 17.1 °F 31% 30.09 in 10.0 mi NNW 21.9 mph 27.6 mph N/A   Clear
3:15 PM 45.9 °F 37.6 °F 18.1 °F 33% 30.10 in 10.0 mi NNW 23.0 mph 28.8 mph N/A   Clear
3:35 PM 45.1 °F 37.9 °F 18.0 °F 34% 30.11 in 10.0 mi North 17.3 mph 24.2 mph N/A   Clear
3:55 PM 43.3 °F 35.5 °F 18.1 °F 36% 30.12 in 10.0 mi North 17.3 mph 24.2 mph N/A   Clear
4:15 PM 42.4 °F 34.7 °F 18.5 °F 38% 30.13 in 10.0 mi North 16.1 mph 23.0 mph N/A   Clear
4:35 PM 41.4 °F 33.0 °F 18.9 °F 41% 30.13 in 10.0 mi North 17.3 mph 23.0 mph N/A   Clear
4:55 PM 39.7 °F 33.2 °F 19.0 °F 43% 30.14 in 10.0 mi North 10.4 mph - N/A   Clear
5:15 PM 36.7 °F 28.0 °F 18.5 °F 48% 30.15 in 10.0 mi North 13.8 mph 17.3 mph N/A   Clear
5:35 PM 35.8 °F 27.8 °F 18.1 °F 49% 30.16 in 10.0 mi North 11.5 mph 18.4 mph N/A   Clear
5:55 PM 34.5 °F 27.3 °F 17.6 °F 50% 30.16 in 10.0 mi North 9.2 mph - N/A   Clear
6:35 PM 33.3 °F 25.1 °F 18.0 °F 53% 30.20 in 10.0 mi North 10.4 mph 16.1 mph N/A   Clear
6:55 PM 31.1 °F 23.1 °F 17.2 °F 57% 30.20 in 10.0 mi NNW 9.2 mph - N/A   Clear
7:15 PM 28.0 °F 18.1 °F 17.1 °F 63% 30.20 in 10.0 mi NNW 11.5 mph - N/A   Clear
7:35 PM 29.7 °F 20.7 °F 17.4 °F 60% 30.20 in 10.0 mi NW 10.4 mph - N/A   Clear
7:55 PM 29.8 °F 22.2 °F 17.6 °F 60% 30.21 in 10.0 mi NW 8.1 mph - N/A   Clear
8:15 PM 28.2 °F 18.3 °F 17.4 °F 64% 30.23 in 10.0 mi NW 11.5 mph - N/A   Clear
8:35 PM 27.9 °F 19.8 °F 17.2 °F 64% 30.24 in 10.0 mi NNW 8.1 mph - N/A   Clear
8:55 PM 27.9 °F 17.8 °F 17.6 °F 65% 30.24 in 10.0 mi NNW 11.5 mph - N/A   Clear
9:15 PM 27.5 °F 18.0 °F 17.6 °F 66% 30.24 in 10.0 mi NNW 10.4 mph - N/A   Clear
9:35 PM 27.5 °F 19.3 °F 17.6 °F 66% 30.26 in 10.0 mi NW 8.1 mph - N/A   Clear
10:55 PM 25.5 °F 17.8 °F 17.4 °F 71% 30.29 in 10.0 mi NNW 6.9 mph - N/A   Clear
11:15 PM 28.8 °F 19.0 °F 18.7 °F 66% 30.28 in 10.0 mi NW 11.5 mph - N/A   Clear
11:35 PM 28.8 °F 18.4 °F 18.5 °F 66% 30.28 in 10.0 mi WNW 12.7 mph - N/A   Clear
11:55 PM 30.2 °F 20.2 °F 18.5 °F 62% 30.28 in 10.0 mi NW 12.7 mph - N/A   Clear